This is the latest recevied weather packets stored in our database for station/object F4IEI-10. If no packets are shown the sender has not sent any weather packets the latest 10 day(s).
| Time | Temp. | Humidity | Pressure | Rain* | Wind** | Luminosity | Snow |
|---|---|---|---|---|---|---|---|
| 1777544011 | 18.89° C | 39% | 1020.8 hPa | - | - | - | - |
| 1777543106 | 18.33° C | 39% | 1020.6 hPa | - | - | - | - |
| 1777542206 | 18.33° C | 41% | 1020.8 hPa | - | - | - | - |
| 1777541306 | 17.78° C | 41% | 1020.9 hPa | - | - | - | - |
| 1777540406 | 17.22° C | 43% | 1021.1 hPa | - | - | - | - |
| 1777539506 | 17.22° C | 42% | 1021.2 hPa | - | - | - | - |
| 1777538606 | 16.67° C | 42% | 1021.2 hPa | - | - | - | - |
| 1777537706 | 16.11° C | 44% | 1021.3 hPa | - | - | - | - |
| 1777536806 | 15.56° C | 44% | 1021.3 hPa | - | - | - | - |
| 1777535906 | 15.56° C | 44% | 1021.3 hPa | - | - | - | - |
| 1777535006 | 15.56° C | 45% | 1021.5 hPa | - | - | - | - |
| 1777534106 | 15° C | 44% | 1021.4 hPa | - | - | - | - |
| 1777533206 | 15° C | 46% | 1021.4 hPa | - | - | - | - |
| 1777532306 | 14.44° C | 46% | 1021.2 hPa | - | - | - | - |
| 1777531406 | 13.89° C | 46% | 1021.3 hPa | - | - | - | - |
| 1777530506 | 13.33° C | 48% | 1021.2 hPa | - | - | - | - |
| 1777529605 | 12.78° C | 49% | 1021.2 hPa | - | - | - | - |
| 1777528706 | 12.22° C | 50% | 1021.2 hPa | - | - | - | - |
| 1777527805 | 11.67° C | 52% | 1021.3 hPa | - | - | - | - |
| 1777526906 | 11.11° C | 53% | 1021.3 hPa | - | - | - | - |
| 1777526006 | 10.56° C | 54% | 1021.3 hPa | - | - | - | - |
| 1777525105 | 10° C | 54% | 1021.1 hPa | - | - | - | - |
| 1777524205 | 9.44° C | 55% | 1020.9 hPa | - | - | - | - |
| 1777523310 | 9.44° C | 55% | 1020.9 hPa | - | - | - | - |
| 1777522409 | 9.44° C | 54% | 1021 hPa | - | - | - | - |
* Rain since midnight (hover to see other rain measurements)
** Current wind speed in m/s (hover to see current wind gust speed)